Tracking 25195 objects as of 20-Jan-2022
HD Live streaming from Space Station
objects crossing your sky now

GRUS-1C

Track GRUS-1C now!
10-day predictions


NORAD ID: 47933
Int'l Code: 2021-022B
Perigee: 582.1 km
Apogee: 608.5 km
Inclination: 97.7 °
Period: 96.4 minutes
Semi major axis: 6966 km
RCS: Unknown
Launch date: March 22, 2021
Source: Japan (JPN)
Launch site: TYURATAM MISSILE AND SPACE COMPLEX (TTMTR)
aabbcc
Your satellite tracking list
Your tracking list is empty




NASA's NSSDC Master Catalog

Two Line Element Set (TLE):
1 47933U 21022B   22020.05277867  .00000255  00000-0  29800-4 0  9996
2 47933  97.7093 283.3796 0018945 314.7898  45.1780 14.93133359 45328
Source of the keplerian elements: AFSPC